TimeCDT,TemperatureF,Dew PointF,Humidity,Sea Level PressureIn,VisibilityMPH,Wind Direction,Wind SpeedMPH,Gust SpeedMPH,PrecipitationIn,Events,Conditions,WindDirDegrees,DateUTC
12:07 AM,53.6,50.0,88,29.92,10.0,SE,6.9,-,N/A,,Clear,130,2013-09-25 05:07:00
12:27 AM,51.8,50.0,94,29.92,10.0,SE,6.9,-,N/A,,Clear,140,2013-09-25 05:27:00
12:47 AM,51.8,50.0,94,29.92,10.0,SE,5.8,-,N/A,,Clear,130,2013-09-25 05:47:00
1:07 AM,51.8,50.0,94,29.92,10.0,SE,6.9,-,N/A,,Clear,140,2013-09-25 06:07:00
1:27 AM,51.8,51.8,100,29.92,10.0,SE,5.8,-,N/A,,Clear,130,2013-09-25 06:27:00
1:47 AM,51.8,48.2,88,29.92,7.0,SE,5.8,-,N/A,,Clear,130,2013-09-25 06:47:00
2:07 AM,50.0,48.2,94,29.92,7.0,SE,5.8,-,N/A,,Clear,140,2013-09-25 07:07:00
2:27 AM,51.8,48.2,88,29.92,7.0,SE,4.6,-,N/A,,Clear,140,2013-09-25 07:27:00
2:47 AM,50.0,48.2,94,29.91,7.0,SE,5.8,-,N/A,,Clear,130,2013-09-25 07:47:00
3:07 AM,50.0,48.2,94,29.91,10.0,SE,6.9,-,N/A,,Clear,130,2013-09-25 08:07:00
3:27 AM,51.8,51.8,100,29.91,10.0,SE,6.9,-,N/A,,Clear,130,2013-09-25 08:27:00
3:47 AM,51.8,50.0,94,29.91,7.0,SE,5.8,-,N/A,,Clear,130,2013-09-25 08:47:00
4:07 AM,51.8,48.2,88,29.91,7.0,ESE,5.8,-,N/A,,Clear,120,2013-09-25 09:07:00
4:27 AM,51.8,51.8,100,29.91,7.0,SE,6.9,-,N/A,,Clear,130,2013-09-25 09:27:00
4:47 AM,53.6,51.8,94,29.90,7.0,ESE,6.9,-,N/A,,Clear,120,2013-09-25 09:47:00
5:07 AM,50.0,48.2,94,29.90,5.0,ESE,4.6,-,N/A,,Clear,120,2013-09-25 10:07:00
5:27 AM,48.2,48.2,100,29.90,5.0,ESE,4.6,-,N/A,,Clear,120,2013-09-25 10:27:00
5:47 AM,50.0,48.2,94,29.90,5.0,ESE,5.8,-,N/A,,Clear,120,2013-09-25 10:47:00
6:07 AM,51.8,50.0,94,29.90,5.0,ESE,4.6,-,N/A,,Clear,120,2013-09-25 11:07:00
6:27 AM,51.8,50.0,94,29.89,5.0,ESE,5.8,-,N/A,,Clear,120,2013-09-25 11:27:00
6:47 AM,51.8,50.0,94,29.89,5.0,SE,5.8,-,N/A,,Clear,130,2013-09-25 11:47:00
7:07 AM,51.8,50.0,94,29.90,4.0,SE,5.8,-,N/A,,Clear,140,2013-09-25 12:07:00
7:27 AM,51.8,51.8,100,29.90,4.0,SE,6.9,-,N/A,,Clear,140,2013-09-25 12:27:00
7:47 AM,53.6,51.8,94,29.90,4.0,SE,6.9,-,N/A,,Clear,140,2013-09-25 12:47:00
8:07 AM,53.6,53.6,100,29.90,4.0,SSE,8.1,-,N/A,,Clear,150,2013-09-25 13:07:00
8:27 AM,55.4,53.6,94,29.90,5.0,SE,8.1,-,N/A,,Clear,140,2013-09-25 13:27:00
8:47 AM,57.2,53.6,88,29.90,7.0,SE,8.1,-,N/A,,Clear,140,2013-09-25 13:47:00
9:07 AM,59.0,55.4,88,29.89,7.0,SE,9.2,-,N/A,,Clear,140,2013-09-25 14:07:00
9:27 AM,60.8,55.4,82,29.89,10.0,SE,8.1,-,N/A,,Clear,140,2013-09-25 14:27:00
9:47 AM,62.6,55.4,77,29.90,10.0,SE,8.1,-,N/A,,Clear,140,2013-09-25 14:47:00
10:07 AM,64.4,55.4,73,29.90,10.0,SSE,9.2,-,N/A,,Clear,160,2013-09-25 15:07:00
10:27 AM,66.2,55.4,68,29.90,10.0,SSE,10.4,-,N/A,,Clear,150,2013-09-25 15:27:00
10:47 AM,68.0,55.4,64,29.90,10.0,South,9.2,-,N/A,,Clear,170,2013-09-25 15:47:00
11:07 AM,71.6,57.2,60,29.90,10.0,SSE,13.8,-,N/A,,Clear,160,2013-09-25 16:07:00
11:27 AM,71.6,57.2,60,29.90,10.0,South,11.5,16.1,N/A,,Clear,170,2013-09-25 16:27:00
11:47 AM,71.6,55.4,57,29.89,10.0,SSE,16.1,19.6,N/A,,Clear,150,2013-09-25 16:47:00
12:07 PM,73.4,53.6,50,29.88,10.0,SSE,16.1,23.0,N/A,,Clear,150,2013-09-25 17:07:00
12:27 PM,75.2,53.6,47,29.87,10.0,SSE,17.3,26.5,N/A,,Clear,160,2013-09-25 17:27:00
12:47 PM,75.2,53.6,47,29.86,10.0,SSE,18.4,24.2,N/A,,Clear,160,2013-09-25 17:47:00
1:07 PM,75.2,51.8,44,29.85,10.0,SE,17.3,26.5,N/A,,Clear,140,2013-09-25 18:07:00
1:27 PM,75.2,51.8,44,29.84,10.0,SSE,16.1,25.3,N/A,,Clear,160,2013-09-25 18:27:00
1:47 PM,75.2,51.8,44,29.83,10.0,SSE,18.4,28.8,N/A,,Clear,150,2013-09-25 18:47:00
2:07 PM,75.2,51.8,44,29.83,10.0,SSE,18.4,25.3,N/A,,Clear,150,2013-09-25 19:07:00
2:27 PM,77.0,51.8,41,29.82,10.0,SSE,17.3,24.2,N/A,,Clear,150,2013-09-25 19:27:00
2:47 PM,77.0,51.8,41,29.81,10.0,SSE,18.4,26.5,N/A,,Clear,150,2013-09-25 19:47:00
3:07 PM,77.0,50.0,39,29.80,10.0,SE,19.6,29.9,N/A,,Clear,130,2013-09-25 20:07:00
3:27 PM,75.2,50.0,41,29.79,10.0,SE,19.6,28.8,N/A,,Clear,130,2013-09-25 20:27:00
3:47 PM,77.0,48.2,36,29.79,10.0,SE,18.4,25.3,N/A,,Clear,140,2013-09-25 20:47:00
4:07 PM,77.0,48.2,36,29.78,10.0,SSE,17.3,24.2,N/A,,Clear,150,2013-09-25 21:07:00
4:27 PM,75.2,48.2,38,29.78,10.0,SE,17.3,24.2,N/A,,Clear,140,2013-09-25 21:27:00
4:47 PM,75.2,48.2,38,29.78,10.0,SSE,19.6,24.2,N/A,,Clear,160,2013-09-25 21:47:00
5:07 PM,75.2,48.2,38,29.78,10.0,SSE,16.1,24.2,N/A,,Clear,150,2013-09-25 22:07:00
5:27 PM,75.2,48.2,38,29.78,10.0,SSE,18.4,23.0,N/A,,Clear,150,2013-09-25 22:27:00
5:47 PM,75.2,48.2,38,29.77,10.0,SE,15.0,21.9,N/A,,Clear,140,2013-09-25 22:47:00
6:07 PM,73.4,50.0,44,29.77,10.0,SE,12.7,-,N/A,,Clear,130,2013-09-25 23:07:00
6:27 PM,73.4,50.0,44,29.77,10.0,SE,15.0,19.6,N/A,,Clear,130,2013-09-25 23:27:00
6:47 PM,71.6,51.8,50,29.77,10.0,SE,12.7,-,N/A,,Clear,130,2013-09-25 23:47:00
7:07 PM,69.8,51.8,53,29.76,10.0,ESE,12.7,-,N/A,,Clear,120,2013-09-26 00:07:00
7:27 PM,68.0,51.8,56,29.77,10.0,ESE,12.7,-,N/A,,Clear,120,2013-09-26 00:27:00
7:47 PM,66.2,51.8,60,29.77,10.0,ESE,11.5,-,N/A,,Clear,120,2013-09-26 00:47:00
8:07 PM,66.2,51.8,60,29.77,10.0,ESE,15.0,19.6,N/A,,Clear,120,2013-09-26 01:07:00
8:27 PM,66.2,51.8,60,29.77,10.0,ESE,13.8,-,N/A,,Clear,120,2013-09-26 01:27:00
8:47 PM,64.4,51.8,64,29.78,10.0,ESE,12.7,19.6,N/A,,Clear,120,2013-09-26 01:47:00
9:07 PM,64.4,51.8,64,29.78,10.0,ESE,13.8,-,N/A,,Clear,120,2013-09-26 02:07:00
9:27 PM,64.4,51.8,64,29.79,10.0,SE,13.8,20.7,N/A,,Clear,130,2013-09-26 02:27:00
9:47 PM,64.4,51.8,64,29.79,10.0,ESE,15.0,19.6,N/A,,Clear,120,2013-09-26 02:47:00
10:07 PM,62.6,51.8,68,29.80,10.0,SE,13.8,18.4,N/A,,Clear,130,2013-09-26 03:07:00
10:27 PM,62.6,51.8,68,29.80,10.0,SE,12.7,20.7,N/A,,Clear,130,2013-09-26 03:27:00
10:47 PM,62.6,51.8,68,29.80,10.0,SE,15.0,20.7,N/A,,Clear,130,2013-09-26 03:47:00
11:07 PM,62.6,51.8,68,29.80,10.0,ESE,12.7,-,N/A,,Clear,120,2013-09-26 04:07:00
11:27 PM,62.6,51.8,68,29.80,10.0,SE,12.7,-,N/A,,Clear,130,2013-09-26 04:27:00
11:47 PM,60.8,51.8,72,29.81,10.0,ESE,12.7,-,N/A,,Clear,120,2013-09-26 04:47:00